Location: Newark
(5.0949°S, 42.8042°W)
Time: 16:14:39
(UTC+00:00)

Hubble Space Telescope - Pass Details

Date: 23 September 2019
Orbit: 536 x 540 km, 28.5° (Epoch: 21 October)

Event Time Altitude Azimuth Distance (km) Brightness Sun altitude
Rises 22:31:19 0° 263° (W) 2,676 5.6 -26.8°
Reaches altitude 10° 22:33:58 10° 278° (W) 1,782 4.4 -27.5°
Enters shadow 22:36:53 22° 323° (NW) 1,209 2.8 -28.2°
